カタログに戻る

COSMOS 1818 COOLANT

LostLEO
NORAD 36948·DEBRIS·🇷🇺 Russia

打ち上げ Feb 1, 1987 から Baikonur Cosmodrome

Loading…

次のパス (今後24時間)

TLE

古いSource: Space-Track

元期: Jun 5, 2015, 05:38 UTC

1 36948U 87011AC  15156.23536568  .00000297  00000-0  14519-3 0  9994
2 36948  65.0057   9.9574 0016070 277.9437  81.9824 14.32817609297069

AllMySatでCOSMOS 1818 COOLANTをリアルタイム追跡

Download on the App Store